NIMBUS 2 DEB, 31142

Orbit data source: Space-Track

NIMBUS 2 DEB, 31142 is space debris in SSO originally from a launch on Sun, 15 May 1966 UTC launched from the Air Force Western Test Range (AFWTR). Debris objects in space refer to the collection of defunct objects orbiting the Earth. Examples of debris include non-operational satellites, rocket bodies, and fragments generated from explosions, collisions, or faulty payload assembly.

Loading next visibility...
Identifier
31142, 1966-040AQ
Orbit
SSO
Country
Flag of USUS
Related business
Manufacturer
Unknown
Mission
Spacecraft
Bus & Motor
Unknown
Mass
Unknown
Launch date (UTC)
1966-05-15 (60 years ago)
Launch vehicle
Unknown
Launch site
Air Force Western Test Range (AFWTR)
Object type
Payload
Rocket body
Debris
Shape & HBR
Unknown shape, 0.1 m
Radar Cross Section
Small (<0.1 m²)

Expand to show TLE details & history
Last TLE update: 11 hours ago

TLE from 11 hours ago
0 NIMBUS 2 DEB
1 31142U 66040AQ  26128.03659815  .00001580  00000-0  25079-2 0  9992
2 31142 100.6004 149.0511 0052756 269.3575 115.9526 13.50828896937454
Epoch: 2026-05-08T00:52Z
TLE epoch observation values (Epoch: 2026-05-08T00:52:42.080Z)
Latitude
25.4104°
Longitude
-95.07295°
Altitude
1,089.509 km
Speed
7.301 km/s
True Right ascension
09h 35m 54s
True Declination
25° 16' 60"
Sunlit
Object was in daylight at epoch
Visualization orbit readout
Latitude
Unknown
Longitude
Unknown
Altitude
Unknown
Speed
Unknown
Apparent Right ascension
Unknown
Apparent Declination
Unknown
Sunlit
N/A
Visualization observer readout
Local Sidereal Time
20:19:51
Azimuth
Unknown
Elevation
Unknown
Doppler factor
Unknown
Orbital elements
Apogee altitude
1,105.834 km
Perigee altitude
1,027.284 km
Semi-major axis
7,444.696 km
Eccentricity
0.00528
Inclination
100.6004°
RAAN
149.0511°
Arg. of periapsis
269.3575°
True anomaly
116.4946°
Mean anomaly
115.9526°
Eccentric anomaly
116.22376°
Mean motion
3.37888 °/min
Orbital period
106.54 mins
BSTAR
0.0025079
Loading maneuver chart data...
Computing Atmospheric mass density...
Loading historical data...
Loading historical data...
Loading historical data...
Loading historical data...
Loading historical data...
Loading historical data...
Loading historical data...

Documentation

Showing up to 5 results
|